Time,TemperatureF,DewpointF,PressureIn,WindDirection,WindDirectionDegrees,WindSpeedMPH,WindSpeedGustMPH,Humidity,HourlyPrecipIn,Conditions,Clouds,dailyrainin,SoftwareType,DateUTC
2013-01-17 00:05:00,32.0,27.0,30.03,WSW,238,5.0,-999.0,82,-99.99,,,-99.99,,2013-01-17 05:05:00,
2013-01-17 00:12:00,32.0,27.0,30.03,WSW,238,5.0,-999.0,82,-99.99,,,-99.99,,2013-01-17 05:12:00,
2013-01-17 00:22:00,32.0,27.0,30.02,WSW,244,3.0,-999.0,83,-99.99,,,-99.99,,2013-01-17 05:22:00,
2013-01-17 00:33:00,32.0,27.0,30.02,SW,234,4.0,-999.0,82,-99.99,,,-99.99,,2013-01-17 05:33:00,
2013-01-17 00:42:00,32.0,27.0,30.02,SW,234,4.0,-999.0,82,-99.99,,,-99.99,,2013-01-17 05:42:00,
2013-01-17 00:52:00,32.0,27.0,30.03,WSW,253,2.0,-999.0,82,-99.99,,,-99.99,,2013-01-17 05:52:00,
2013-01-17 01:03:00,32.0,27.0,30.03,WSW,244,1.0,-999.0,83,-99.99,,,-99.99,,2013-01-17 06:03:00,
2013-01-17 01:12:00,31.0,27.0,30.04,West,275,0.0,-999.0,84,-99.99,,,-99.99,,2013-01-17 06:12:00,
2013-01-17 01:22:00,31.0,27.0,30.04,West,275,0.0,-999.0,84,-99.99,,,-99.99,,2013-01-17 06:22:00,
2013-01-17 01:33:00,31.0,27.0,30.04,WSW,246,0.0,-999.0,85,-99.99,,,-99.99,,2013-01-17 06:33:00,
2013-01-17 01:42:00,31.0,27.0,30.04,WSW,246,0.0,-999.0,85,-99.99,,,-99.99,,2013-01-17 06:42:00,
2013-01-17 01:52:00,32.0,28.0,30.05,West,267,1.0,-999.0,84,-99.99,,,-99.99,,2013-01-17 06:52:00,
2013-01-17 02:02:00,31.0,27.0,30.06,WNW,296,0.0,-999.0,84,-99.99,,,-99.99,,2013-01-17 07:02:00,
2013-01-17 02:12:00,31.0,27.0,30.06,WNW,296,0.0,-999.0,84,-99.99,,,-99.99,,2013-01-17 07:12:00,
2013-01-17 02:22:00,31.0,27.0,30.07,WSW,246,0.0,-999.0,84,-99.99,,,-99.99,,2013-01-17 07:22:00,
2013-01-17 02:33:00,31.0,27.0,30.07,WSW,246,1.0,-999.0,85,-99.99,,,-99.99,,2013-01-17 07:33:00,
2013-01-17 02:42:00,31.0,27.0,30.07,WSW,246,1.0,-999.0,85,-99.99,,,-99.99,,2013-01-17 07:42:00,
2013-01-17 02:52:00,30.0,26.0,30.08,WSW,246,0.0,-999.0,86,-99.99,,,-99.99,,2013-01-17 07:52:00,
2013-01-17 03:02:00,30.0,26.0,30.09,WSW,246,0.0,-999.0,86,-99.99,,,-99.99,,2013-01-17 08:02:00,
2013-01-17 03:12:00,30.0,26.0,30.09,WSW,246,0.0,-999.0,86,-99.99,,,-99.99,,2013-01-17 08:12:00,
2013-01-17 03:22:00,30.0,27.0,30.10,WSW,246,2.0,-999.0,87,-99.99,,,-99.99,,2013-01-17 08:22:00,
2013-01-17 03:32:00,30.0,27.0,30.10,WSW,243,1.0,-999.0,87,-99.99,,,-99.99,,2013-01-17 08:32:00,
2013-01-17 03:43:00,30.0,27.0,30.10,WSW,243,1.0,-999.0,87,-99.99,,,-99.99,,2013-01-17 08:43:00,
2013-01-17 03:52:00,30.0,27.0,30.10,WSW,243,1.0,-999.0,87,-99.99,,,-99.99,,2013-01-17 08:52:00,
2013-01-17 04:03:00,30.0,27.0,30.11,SW,227,1.0,-999.0,87,-99.99,,,-99.99,,2013-01-17 09:03:00,
2013-01-17 04:12:00,30.0,27.0,30.11,SW,227,1.0,-999.0,87,-99.99,,,-99.99,,2013-01-17 09:12:00,
2013-01-17 04:22:00,30.0,27.0,30.11,SW,227,1.0,-999.0,87,-99.99,,,-99.99,,2013-01-17 09:22:00,
2013-01-17 04:33:00,30.0,27.0,30.10,WSW,237,1.0,-999.0,88,-99.99,,,-99.99,,2013-01-17 09:33:00,
2013-01-17 04:42:00,30.0,27.0,30.10,WSW,237,1.0,-999.0,88,-99.99,,,-99.99,,2013-01-17 09:42:00,
2013-01-17 04:52:00,30.0,27.0,30.11,WSW,238,0.0,-999.0,88,-99.99,,,-99.99,,2013-01-17 09:52:00,
2013-01-17 05:02:00,30.0,27.0,30.11,WSW,245,1.0,-999.0,88,-99.99,,,-99.99,,2013-01-17 10:02:00,
2013-01-17 05:12:00,30.0,27.0,30.11,WSW,245,1.0,-999.0,88,-99.99,,,-99.99,,2013-01-17 10:12:00,
2013-01-17 05:22:00,30.0,27.0,30.11,WSW,245,0.0,-999.0,88,-99.99,,,-99.99,,2013-01-17 10:22:00,
2013-01-17 05:32:00,30.0,27.0,30.11,WSW,245,0.0,-999.0,88,-99.99,,,-99.99,,2013-01-17 10:32:00,
2013-01-17 05:42:00,30.0,27.0,30.11,WSW,245,0.0,-999.0,88,-99.99,,,-99.99,,2013-01-17 10:42:00,
2013-01-17 05:52:00,30.0,27.0,30.11,WSW,245,0.0,-999.0,88,-99.99,,,-99.99,,2013-01-17 10:52:00,
2013-01-17 06:03:00,30.0,27.0,30.11,WSW,245,0.0,-999.0,88,-99.99,,,-99.99,,2013-01-17 11:03:00,
2013-01-17 06:12:00,30.0,27.0,30.11,WSW,245,0.0,-999.0,88,-99.99,,,-99.99,,2013-01-17 11:12:00,
2013-01-17 06:22:00,30.0,27.0,30.11,WSW,245,0.0,-999.0,88,-99.99,,,-99.99,,2013-01-17 11:22:00,
2013-01-17 06:33:00,30.0,27.0,30.11,WSW,245,0.0,-999.0,88,-99.99,,,-99.99,,2013-01-17 11:33:00,
2013-01-17 06:53:00,30.0,27.0,30.11,NW,321,1.0,-999.0,89,-99.99,,,-99.99,,2013-01-17 11:53:00,
2013-01-17 07:03:00,30.0,27.0,30.12,NNW,343,1.0,-999.0,89,-99.99,,,-99.99,,2013-01-17 12:03:00,
2013-01-17 07:12:00,30.0,27.0,30.12,NNW,343,1.0,-999.0,89,-99.99,,,-99.99,,2013-01-17 12:12:00,
2013-01-17 07:23:00,30.0,27.0,30.12,NNW,327,2.0,-999.0,90,-99.99,,,-99.99,,2013-01-17 12:23:00,
2013-01-17 07:33:00,30.0,27.0,30.13,NNW,340,3.0,-999.0,90,-99.99,,,-99.99,,2013-01-17 12:33:00,
2013-01-17 07:43:00,30.0,27.0,30.13,NNW,340,3.0,-999.0,90,-99.99,,,-99.99,,2013-01-17 12:43:00,
2013-01-17 07:52:00,30.0,27.0,30.13,North,355,4.0,-999.0,90,-99.99,,,-99.99,,2013-01-17 12:52:00,
2013-01-17 08:03:00,30.0,27.0,30.14,NNW,340,5.0,-999.0,89,-99.99,,,-99.99,,2013-01-17 13:03:00,
2013-01-17 08:12:00,30.0,27.0,30.14,NNW,340,5.0,-999.0,89,-99.99,,,-99.99,,2013-01-17 13:12:00,
2013-01-17 08:23:00,31.0,28.0,30.14,NNW,331,6.0,-999.0,88,-99.99,,,-99.99,,2013-01-17 13:23:00,
2013-01-17 08:33:00,31.0,28.0,30.16,NNW,348,6.0,-999.0,87,-99.99,,,-99.99,,2013-01-17 13:33:00,
2013-01-17 08:43:00,31.0,28.0,30.16,NNW,348,6.0,-999.0,87,-99.99,,,-99.99,,2013-01-17 13:43:00,
2013-01-17 08:52:00,31.0,28.0,30.17,NNW,348,6.0,-999.0,87,-99.99,,,-99.99,,2013-01-17 13:52:00,
2013-01-17 09:03:00,31.0,28.0,30.17,NNW,347,7.0,-999.0,87,-99.99,,,-99.99,,2013-01-17 14:03:00,
2013-01-17 09:12:00,31.0,28.0,30.17,NNW,347,7.0,-999.0,87,-99.99,,,-99.99,,2013-01-17 14:12:00,
2013-01-17 09:23:00,30.0,27.0,30.17,NNW,348,6.0,-999.0,87,-99.99,,,-99.99,,2013-01-17 14:23:00,
2013-01-17 09:33:00,31.0,28.0,30.18,NNW,347,6.0,-999.0,87,-99.99,,,-99.99,,2013-01-17 14:33:00,
2013-01-17 09:43:00,31.0,28.0,30.18,NNW,347,6.0,-999.0,87,-99.99,,,-99.99,,2013-01-17 14:43:00,
2013-01-17 09:53:00,32.0,28.0,30.18,NNW,336,8.0,-999.0,85,-99.99,,,-99.99,,2013-01-17 14:53:00,
2013-01-17 10:03:00,32.0,28.0,30.19,NNW,344,8.0,-999.0,84,-99.99,,,-99.99,,2013-01-17 15:03:00,
2013-01-17 10:12:00,32.0,28.0,30.19,NNW,344,8.0,-999.0,84,-99.99,,,-99.99,,2013-01-17 15:12:00,
2013-01-17 10:23:00,33.0,28.0,30.20,NNW,336,7.0,-999.0,83,-99.99,,,-99.99,,2013-01-17 15:23:00,
2013-01-17 10:33:00,33.0,28.0,30.20,NNW,348,7.0,-999.0,81,-99.99,,,-99.99,,2013-01-17 15:33:00,
2013-01-17 10:43:00,33.0,28.0,30.20,NNW,348,7.0,-999.0,81,-99.99,,,-99.99,,2013-01-17 15:43:00,
2013-01-17 10:53:00,34.0,28.0,30.21,NNW,344,8.0,-999.0,80,-99.99,,,-99.99,,2013-01-17 15:53:00,
2013-01-17 11:03:00,34.0,28.0,30.22,NNW,346,7.0,-999.0,79,-99.99,,,-99.99,,2013-01-17 16:03:00,
2013-01-17 11:12:00,34.0,28.0,30.22,NNW,346,7.0,-999.0,79,-99.99,,,-99.99,,2013-01-17 16:12:00,
2013-01-17 11:23:00,34.0,28.0,30.22,NNW,340,7.0,-999.0,78,-99.99,,,-99.99,,2013-01-17 16:23:00,
2013-01-17 11:33:00,34.0,28.0,30.22,NNW,335,5.0,-999.0,77,-99.99,,,-99.99,,2013-01-17 16:33:00,
2013-01-17 11:43:00,34.0,28.0,30.22,NNW,335,5.0,-999.0,77,-99.99,,,-99.99,,2013-01-17 16:43:00,
2013-01-17 11:53:00,35.0,27.0,30.22,NNW,344,4.0,-999.0,73,-99.99,,,-99.99,,2013-01-17 16:53:00,
2013-01-17 12:03:00,35.0,27.0,30.21,NNW,341,4.0,-999.0,71,-99.99,,,-99.99,,2013-01-17 17:03:00,
2013-01-17 12:13:00,35.0,27.0,30.21,NNW,341,4.0,-999.0,71,-99.99,,,-99.99,,2013-01-17 17:13:00,
2013-01-17 12:23:00,35.0,26.0,30.21,NW,326,4.0,-999.0,70,-99.99,,,-99.99,,2013-01-17 17:23:00,
2013-01-17 12:33:00,35.0,26.0,30.20,North,355,4.0,-999.0,70,-99.99,,,-99.99,,2013-01-17 17:33:00,
2013-01-17 12:43:00,35.0,26.0,30.20,North,355,4.0,-999.0,70,-99.99,,,-99.99,,2013-01-17 17:43:00,
2013-01-17 12:53:00,35.0,26.0,30.20,NNW,346,5.0,-999.0,68,-99.99,,,-99.99,,2013-01-17 17:53:00,
2013-01-17 13:04:00,35.0,26.0,30.18,NNW,344,4.0,-999.0,69,-99.99,,,-99.99,,2013-01-17 18:04:00,
2013-01-17 13:12:00,35.0,26.0,30.18,NNW,344,4.0,-999.0,69,-99.99,,,-99.99,,2013-01-17 18:12:00,
2013-01-17 13:23:00,35.0,24.0,30.19,North,360,5.0,-999.0,65,-99.99,,,-99.99,,2013-01-17 18:23:00,
2013-01-17 13:33:00,37.0,27.0,30.19,WNW,289,2.0,-999.0,67,-99.99,,,-99.99,,2013-01-17 18:33:00,
2013-01-17 13:43:00,37.0,27.0,30.19,WNW,289,2.0,-999.0,67,-99.99,,,-99.99,,2013-01-17 18:43:00,
2013-01-17 13:53:00,37.0,25.0,30.19,NNW,348,3.0,-999.0,62,-99.99,,,-99.99,,2013-01-17 18:53:00,
2013-01-17 14:03:00,37.0,26.0,30.19,WNW,286,3.0,-999.0,63,-99.99,,,-99.99,,2013-01-17 19:03:00,
2013-01-17 14:13:00,37.0,26.0,30.19,WNW,286,3.0,-999.0,63,-99.99,,,-99.99,,2013-01-17 19:13:00,
2013-01-17 14:23:00,36.0,25.0,30.18,NW,309,4.0,-999.0,63,-99.99,,,-99.99,,2013-01-17 19:23:00,
2013-01-17 14:33:00,36.0,25.0,30.18,North,360,4.0,-999.0,64,-99.99,,,-99.99,,2013-01-17 19:33:00,
2013-01-17 14:43:00,36.0,25.0,30.18,North,360,4.0,-999.0,64,-99.99,,,-99.99,,2013-01-17 19:43:00,
2013-01-17 14:53:00,36.0,25.0,30.18,NNW,348,4.0,-999.0,63,-99.99,,,-99.99,,2013-01-17 19:53:00,
2013-01-17 15:03:00,35.0,22.0,30.18,NNW,348,6.0,-999.0,59,-99.99,,,-99.99,,2013-01-17 20:03:00,
2013-01-17 15:12:00,35.0,22.0,30.18,NNW,348,6.0,-999.0,59,-99.99,,,-99.99,,2013-01-17 20:12:00,
2013-01-17 15:23:00,34.0,22.0,30.18,NNW,343,8.0,-999.0,60,-99.99,,,-99.99,,2013-01-17 20:23:00,
2013-01-17 15:33:00,33.0,21.0,30.19,North,355,8.0,-999.0,62,-99.99,,,-99.99,,2013-01-17 20:33:00,
2013-01-17 15:43:00,33.0,21.0,30.19,North,355,8.0,-999.0,62,-99.99,,,-99.99,,2013-01-17 20:43:00,
2013-01-17 15:53:00,33.0,22.0,30.20,North,355,6.0,-999.0,63,-99.99,,,-99.99,,2013-01-17 20:53:00,
2013-01-17 16:03:00,33.0,21.0,30.20,NNW,332,4.0,-999.0,61,-99.99,,,-99.99,,2013-01-17 21:03:00,
2013-01-17 16:13:00,33.0,21.0,30.20,NNW,332,4.0,-999.0,61,-99.99,,,-99.99,,2013-01-17 21:13:00,
2013-01-17 16:23:00,32.0,20.0,30.20,West,276,5.0,-999.0,62,-99.99,,,-99.99,,2013-01-17 21:23:00,
2013-01-17 16:34:00,32.0,21.0,30.21,WNW,288,4.0,-999.0,64,-99.99,,,-99.99,,2013-01-17 21:34:00,
2013-01-17 16:43:00,32.0,21.0,30.21,WNW,288,4.0,-999.0,64,-99.99,,,-99.99,,2013-01-17 21:43:00,
2013-01-17 16:52:00,31.0,21.0,30.22,NNW,342,5.0,-999.0,65,-99.99,,,-99.99,,2013-01-17 21:52:00,
2013-01-17 17:03:00,30.0,20.0,30.22,North,355,5.0,-999.0,66,-99.99,,,-99.99,,2013-01-17 22:03:00,
2013-01-17 17:12:00,30.0,20.0,30.22,North,355,5.0,-999.0,66,-99.99,,,-99.99,,2013-01-17 22:12:00,
2013-01-17 17:23:00,29.0,19.0,30.24,North,350,5.0,-999.0,66,-99.99,,,-99.99,,2013-01-17 22:23:00,
2013-01-17 17:33:00,28.0,19.0,30.24,North,355,6.0,-999.0,69,-99.99,,,-99.99,,2013-01-17 22:33:00,
2013-01-17 17:43:00,28.0,19.0,30.24,North,355,6.0,-999.0,69,-99.99,,,-99.99,,2013-01-17 22:43:00,
2013-01-17 17:52:00,28.0,20.0,30.25,NNW,338,5.0,-999.0,70,-99.99,,,-99.99,,2013-01-17 22:52:00,
2013-01-17 18:03:00,27.0,19.0,30.27,NNW,346,7.0,-999.0,70,-99.99,,,-99.99,,2013-01-17 23:03:00,
2013-01-17 18:12:00,27.0,19.0,30.27,NNW,346,7.0,-999.0,70,-99.99,,,-99.99,,2013-01-17 23:12:00,
2013-01-17 18:22:00,27.0,19.0,30.27,NNW,346,7.0,-999.0,70,-99.99,,,-99.99,,2013-01-17 23:22:00,
2013-01-17 18:33:00,25.0,16.0,30.28,North,355,6.0,-999.0,69,-99.99,,,-99.99,,2013-01-17 23:33:00,
2013-01-17 18:43:00,25.0,16.0,30.28,North,355,6.0,-999.0,69,-99.99,,,-99.99,,2013-01-17 23:43:00,
2013-01-17 18:53:00,24.0,16.0,30.29,North,355,5.0,-999.0,70,-99.99,,,-99.99,,2013-01-17 23:53:00,
2013-01-17 19:03:00,24.0,16.0,30.30,NNW,334,5.0,-999.0,72,-99.99,,,-99.99,,2013-01-18 00:03:00,
2013-01-17 19:12:00,24.0,16.0,30.30,NNW,334,5.0,-999.0,72,-99.99,,,-99.99,,2013-01-18 00:12:00,
2013-01-17 19:23:00,24.0,16.0,30.30,NNW,334,5.0,-999.0,72,-99.99,,,-99.99,,2013-01-18 00:23:00,
2013-01-17 19:32:00,24.0,16.0,30.30,NNW,334,5.0,-999.0,72,-99.99,,,-99.99,,2013-01-18 00:32:00,
2013-01-17 19:42:00,23.0,15.0,30.31,NNW,341,4.0,-999.0,72,-99.99,,,-99.99,,2013-01-18 00:42:00,
2013-01-17 19:52:00,23.0,15.0,30.32,NNW,346,3.0,-999.0,72,-99.99,,,-99.99,,2013-01-18 00:52:00,
2013-01-17 20:03:00,23.0,16.0,30.33,NNW,346,5.0,-999.0,73,-99.99,,,-99.99,,2013-01-18 01:03:00,
2013-01-17 20:13:00,23.0,16.0,30.33,NNW,346,5.0,-999.0,73,-99.99,,,-99.99,,2013-01-18 01:13:00,
2013-01-17 20:23:00,23.0,16.0,30.33,NNW,337,4.0,-999.0,74,-99.99,,,-99.99,,2013-01-18 01:23:00,
2013-01-17 20:33:00,22.0,15.0,30.34,NNW,342,2.0,-999.0,75,-99.99,,,-99.99,,2013-01-18 01:33:00,
2013-01-17 20:43:00,22.0,15.0,30.34,NNW,342,2.0,-999.0,75,-99.99,,,-99.99,,2013-01-18 01:43:00,
2013-01-17 20:52:00,22.0,16.0,30.34,NNW,342,0.0,-999.0,76,-99.99,,,-99.99,,2013-01-18 01:52:00,
2013-01-17 21:03:00,21.0,15.0,30.35,NNW,342,0.0,-999.0,76,-99.99,,,-99.99,,2013-01-18 02:03:00,
2013-01-17 21:12:00,21.0,15.0,30.35,NNW,342,0.0,-999.0,76,-99.99,,,-99.99,,2013-01-18 02:12:00,
2013-01-17 21:22:00,21.0,15.0,30.35,NW,313,0.0,-999.0,77,-99.99,,,-99.99,,2013-01-18 02:22:00,
2013-01-17 21:33:00,21.0,15.0,30.35,NW,307,0.0,-999.0,76,-99.99,,,-99.99,,2013-01-18 02:33:00,
2013-01-17 21:43:00,21.0,15.0,30.35,NW,307,0.0,-999.0,76,-99.99,,,-99.99,,2013-01-18 02:43:00,
2013-01-17 21:52:00,21.0,15.0,30.35,NW,307,0.0,-999.0,77,-99.99,,,-99.99,,2013-01-18 02:52:00,
2013-01-17 22:02:00,20.0,14.0,30.35,NW,307,0.0,-999.0,78,-99.99,,,-99.99,,2013-01-18 03:02:00,
2013-01-17 22:13:00,20.0,14.0,30.35,NW,307,0.0,-999.0,78,-99.99,,,-99.99,,2013-01-18 03:13:00,
2013-01-17 22:23:00,20.0,14.0,30.35,NW,307,0.0,-999.0,78,-99.99,,,-99.99,,2013-01-18 03:23:00,
2013-01-17 22:33:00,20.0,15.0,30.35,NW,307,0.0,-999.0,79,-99.99,,,-99.99,,2013-01-18 03:33:00,
2013-01-17 22:43:00,20.0,15.0,30.35,NW,307,0.0,-999.0,79,-99.99,,,-99.99,,2013-01-18 03:43:00,
2013-01-17 22:52:00,20.0,15.0,30.35,NW,307,0.0,-999.0,79,-99.99,,,-99.99,,2013-01-18 03:52:00,
2013-01-17 23:02:00,20.0,15.0,30.35,NW,306,0.0,-999.0,80,-99.99,,,-99.99,,2013-01-18 04:02:00,
2013-01-17 23:12:00,20.0,15.0,30.35,NW,306,0.0,-999.0,80,-99.99,,,-99.99,,2013-01-18 04:12:00,
2013-01-17 23:22:00,20.0,15.0,30.35,WSW,240,2.0,-999.0,81,-99.99,,,-99.99,,2013-01-18 04:22:00,
2013-01-17 23:33:00,20.0,15.0,30.36,WSW,239,3.0,-999.0,80,-99.99,,,-99.99,,2013-01-18 04:33:00,
2013-01-17 23:42:00,20.0,15.0,30.36,WSW,239,3.0,-999.0,80,-99.99,,,-99.99,,2013-01-18 04:42:00,
2013-01-17 23:52:00,20.0,15.0,30.36,SSW,213,2.0,-999.0,80,-99.99,,,-99.99,,2013-01-18 04:52:00,